NANOSAT-1

Last updated on Mon Sep 07 2026 00:03:15 GMT+0000 (Coordinated Universal Time)

1 28493U 04049B 26249.35410654 .00000558 00000+0 80603-4 0 9992 2 28493 98.2391 28.0597 0004803 45.8468 314.3137 14.80295585167453
UTC large
Height (km)
Speed (km/s)
/
Latitude / Longitude
Inclination (degrees)
Orbital Period (minutes)
Azimuth
Elevation
Range (km)
Doppler Factor

Next 0 passes for location: London (51.5072 / 0.1276)

No passes found over London.
NANOSAT-1